Location: *
(37.9500°N, 27.3666°E)
Time: 23:05:05
(UTC+00:00)

Tiangong - Visible Passes

Search period start: 15 April 2024 00:00
Search period end: 25 April 2024 00:00
Orbit: 371 x 381 km, 41.5° (Epoch: 15 April)

Date Brightness Start Highest point End Pass type
(mag) Time Alt. Az. Time Alt. Az. Time Alt. Az.
15 Apr 0.2 18:16:48 10° SSW 18:17:26 14° SSW 18:17:26 14° SSW visible
16 Apr -0.1 17:15:32 10° S 17:17:06 13° SE 17:18:41 10° ESE visible
16 Apr 0.3 18:50:17 10° WSW 18:51:06 17° WSW 18:51:06 17° WSW visible
17 Apr -1.7 17:48:01 10° SW 17:50:56 40° SSE 17:52:24 23° E visible
18 Apr -2.1 18:21:55 10° WSW 18:25:00 75° NNW 18:25:31 56° NE visible
19 Apr -2.2 17:19:28 10° WSW 17:22:31 66° SSE 17:25:35 10° ENE visible
19 Apr -0.5 18:56:17 10° W 18:58:26 34° NW 18:58:26 34° NW visible
20 Apr -1.6 17:53:38 10° W 17:56:40 55° NNW 17:59:08 14° ENE visible
20 Apr 1.1 19:30:37 10° WNW 19:31:10 14° WNW 19:31:10 14° WNW visible
21 Apr -1.1 18:28:01 10° WNW 18:30:58 40° N 18:31:44 33° NE visible
22 Apr -1.2 17:25:22 10° W 17:28:21 45° N 17:31:20 10° ENE visible
22 Apr -0.4 19:02:16 10° WNW 19:04:16 32° NW 19:04:16 32° NW visible
23 Apr -1.2 17:59:42 10° WNW 18:02:40 41° N 18:04:41 17° ENE visible
23 Apr 1.1 19:36:23 10° WNW 19:36:43 12° WNW 19:36:43 12° WNW visible
24 Apr -2.0 18:33:52 10° WNW 18:36:56 61° NNE 18:37:07 59° NE visible
